Flag for Canada Weather past 2 weeks in Campbell River, British Columbia, Canada

Now
81 °F

Scattered clouds.


Feels Like: 79 °F
Forecast: 63 / 88 °F
Wind: 13 mph from Northwest

Location: Campbell River Airport

Current Time: Jul 4, 2015 at 8:37:03 PM

Latest Report: Jul 4, 2015 at 8:00 PM


Visibility: 30 mi

Pressure: 29.80 "Hg

Humidity: 24%

Dew point: 41 °F

Location of Campbell RiverLocation

Historic Weather in Campbell River — Graph

°F

Campbell River temperature yesterday

Maximum temperature yesterday: 90 °F (at 4:00 PM)
Minimum temperature yesterday: 61 °F (at 6:00 AM)
Average temperature yesterday: 79 °F

Past Weeks' High & Low Weather Summary

 TemperatureHumidityPressure
High91 °F (Jun 27, 3:00 PM)100% (Jun 25, 6:00 AM)30.17 "Hg (Jun 25, 6:00 AM)
Low48 °F (Jun 20, 6:00 AM)11% (Jul 3, 2:00 PM)29.80 "Hg (Jul 4, 7:00 PM)
Average73 °F49%30.02 "Hg
* Reported Jun 19 7:00 PM — Jul 4 7:00 PM, Campbell River, Weather by CustomWeather, © 2015

Note: Actual official high and low records may vary slightly from our data, if they occured in-between our weather recording intervals... More about our weather records

Advertising

Campbell River weather history for previous 24 hours

 ConditionsComfort  
Time TempWeatherWind HumidityBarometerVisibility
7:00 PM
Sat, Jul 4
86 °FPartly sunny.10 mph20%29.80 "Hg30 mi
6:00 PM86 °FPartly sunny.17 mph19%29.80 "Hg30 mi
5:00 PM88 °FPartly sunny.16 mph18%29.81 "Hg30 mi
4:00 PM90 °FPartly sunny.16 mph17%29.81 "Hg30 mi
3:00 PM90 °FPartly sunny.13 mph17%29.83 "Hg30 mi
2:00 PM86 °FScattered clouds.18 mph18%29.85 "Hg30 mi
1:00 PM86 °FScattered clouds.14 mph18%29.86 "Hg30 mi
12:00 PM82 °FPassing clouds.18 mph20%29.88 "Hg30 mi
11:00 AM81 °FPassing clouds.23 mph23%29.88 "Hg30 mi
10:00 AM75 °FPassing clouds.17 mph29%29.90 "Hg30 mi
9:00 AM70 °FPassing clouds.7 mph40%29.90 "Hg30 mi
8:00 AM66 °FPassing clouds.9 mph46%29.91 "Hg30 mi
7:00 AM61 °FPassing clouds.8 mph55%29.91 "Hg30 mi
6:00 AM59 °FPassing clouds.10 mph51%29.90 "Hg30 mi
9:00 PM
Fri, Jul 3
77 °FSunny.20 mph26%29.87 "Hg30 mi
8:00 PM81 °FSunny.21 mph23%29.88 "Hg30 mi
Weather by CustomWeather, © 2015

See weather overviewHow to use our weather pages